createdAt;updatedAt;Heure
2018-02-24 06:00:00;;1.0
2018-02-24 07:00:00;;2.0
2018-02-24 08:00:00;;3.0
2018-02-24 09:00:00;;4.0
2018-02-24 10:00:00;;5.0
2018-02-24 11:00:00;;6.0
2018-02-24 12:00:00;;7.0
2018-02-24 13:00:00;;8.0
2018-02-24 14:00:00;;9.0
2018-02-24 15:00:00;;10.0
2018-02-24 16:00:00;;11.0
2018-02-24 17:00:00;;12.0
2018-02-24 18:00:00;;13.0
2018-02-24 19:00:00;;14.0
2018-02-24 20:00:00;;15.0
2018-02-24 21:00:00;;16.0
2018-02-24 22:00:00;;17.0
2018-02-24 23:00:00;;18.0
2018-02-25 00:00:00;;19.0
2018-02-25 01:00:00;;20.0
2018-02-25 02:00:00;;21.0
2018-02-25 03:00:00;;22.0
2018-02-25 04:00:00;;23.0
2018-02-25 05:00:00;;24.0
2018-02-25 06:00:00;;25.0
2018-02-25 07:00:00;;26.0
2018-02-25 08:00:00;;27.0
2018-02-25 09:00:00;;28.0
2018-02-25 10:00:00;;29.0
2018-02-25 11:00:00;;30.0
2018-02-25 12:00:00;;31.0
2018-02-25 13:00:00;;32.0
2018-02-25 14:00:00;;33.0
2018-02-25 15:00:00;;34.0
2018-02-25 16:00:00;;35.0
2018-02-25 17:00:00;;36.0
2018-02-25 18:00:00;;37.0
2018-02-25 19:00:00;;38.0
2018-02-25 20:00:00;;39.0
2018-02-25 21:00:00;;40.0
2018-02-25 22:00:00;;41.0
2018-02-25 23:00:00;;42.0
2018-02-26 00:00:00;;43.0
2018-02-26 01:00:00;;44.0
2018-02-26 02:00:00;;45.0
2018-02-26 03:00:00;;46.0
2018-02-26 04:00:00;;47.0
2018-02-26 05:00:00;;48.0
2018-02-26 06:00:00;;49.0
2018-02-26 07:00:00;;50.0
2018-02-26 08:00:00;;51.0
2018-02-26 09:00:00;;52.0
2018-02-26 10:00:00;;53.0
2018-02-26 11:00:00;;54.0
2018-02-26 12:00:00;;55.0
2018-02-26 13:00:00;;56.0
2018-02-26 14:00:00;;1.0
2018-02-26 15:00:00;;1.25
2018-02-26 16:00:00;;2.0
2018-02-26 17:00:00;;1.0
2018-02-26 18:00:00;;2.0
2018-02-26 19:00:00;;3.0
2018-02-26 20:00:00;;4.0
2018-02-26 21:00:00;;5.0
2018-02-26 22:00:00;;6.0
2018-02-26 23:00:00;;7.0
2018-02-27 00:00:00;;8.0
2018-02-27 01:00:00;;9.0
2018-02-27 02:00:00;;10.0
2018-02-27 03:00:00;;11.0
2018-02-27 04:00:00;;12.0
2018-02-27 05:00:00;;13.0
2018-02-27 06:00:00;;14.0
2018-02-27 07:00:00;;15.0
2018-02-27 08:00:00;;16.0
2018-02-27 09:00:00;;17.0
2018-02-27 10:00:00;;18.0
2018-02-27 11:00:00;;0.0
2018-02-27 12:00:00;;0.0
2018-02-27 13:00:00;;0.0
2018-02-27 14:00:00;;0.0
2018-02-27 15:00:00;;0.17687074829931973
2018-02-27 16:00:00;;1.0
2018-02-27 17:00:00;;1.027027027027027
2018-02-27 18:00:00;;3.0
2018-02-27 19:00:00;;4.0
2018-02-27 20:00:00;;5.0
2018-02-27 21:00:00;;6.0
2018-02-27 22:00:00;;7.0
2018-02-27 23:00:00;;8.0
2018-02-28 00:00:00;;9.0
2018-02-28 01:00:00;;10.0
2018-02-28 02:00:00;;11.0
2018-02-28 03:00:00;;12.0
2018-02-28 04:00:00;;13.0
2018-02-28 05:00:00;;14.0
2018-02-28 06:00:00;;15.0
2018-02-28 07:00:00;;16.0
2018-02-28 08:00:00;;9.0
2018-02-28 09:00:00;;1.5483870967741935
2018-02-28 10:00:00;;1.0208333333333333
2018-02-28 11:00:00;;1.024390243902439
2018-02-28 12:00:00;;1.3333333333333333
2018-02-28 13:00:00;;0.8073394495412844
2018-02-28 14:00:00;;1.0354609929078014
2018-02-28 15:00:00;;1.1153846153846154
2018-02-28 16:00:00;;1.0813953488372092
2018-02-28 17:00:00;;1.3636363636363635
2018-02-28 18:00:00;;10.0
2018-02-28 19:00:00;;11.0
2018-02-28 20:00:00;;12.0
2018-02-28 21:00:00;;13.0
2018-02-28 22:00:00;;14.0
2018-02-28 23:00:00;;0.0
2018-03-01 00:00:00;;0.0
2018-03-01 01:00:00;;0.0
2018-03-01 02:00:00;;0.0
2018-03-01 03:00:00;;0.0
2018-03-01 04:00:00;;0.0
2018-03-01 05:00:00;;0.0
2018-03-01 06:00:00;;0.0
2018-03-01 07:00:00;;0.0
2018-03-01 08:00:00;;0.0
2018-03-01 09:00:00;;1.0
2018-03-01 10:00:00;;1.0204081632653061
2018-03-01 11:00:00;;3.0
2018-03-01 12:00:00;;4.0
2018-03-01 13:00:00;;1.048780487804878
2018-03-01 14:00:00;;1.0381679389312977
2018-03-01 15:00:00;;1.048
2018-03-01 16:00:00;;0.25170068027210885
2018-03-01 17:00:00;;0.1935483870967742
2018-03-01 18:00:00;;2.0
2018-03-01 19:00:00;;0.0
2018-03-01 20:00:00;;0.0
2018-03-01 21:00:00;;0.0
2018-03-01 22:00:00;;1.0
2018-03-01 23:00:00;;2.0
2018-03-02 00:00:00;;3.0
2018-03-02 01:00:00;;4.0
2018-03-02 02:00:00;;5.0
2018-03-02 03:00:00;;6.0
2018-03-02 04:00:00;;7.0
2018-03-02 05:00:00;;8.0
2018-03-02 06:00:00;;9.0
2018-03-02 07:00:00;;0.0
2018-03-02 08:00:00;;0.0
2018-03-02 09:00:00;;0.0
2018-03-02 10:00:00;;0.0
2018-03-02 11:00:00;;0.0
2018-03-02 12:00:00;;0.0
2018-03-02 13:00:00;;0.967741935483871
2018-03-02 14:00:00;;0.03076923076923077
2018-03-02 15:00:00;;0.5826771653543307
2018-03-02 16:00:00;;0.8780487804878049
2018-03-02 17:00:00;;0.3673469387755102
2018-03-02 18:00:00;;1.0588235294117647
2018-03-02 19:00:00;;3.0
2018-03-02 20:00:00;;4.0
2018-03-02 21:00:00;;5.0
2018-03-02 22:00:00;;6.0
2018-03-02 23:00:00;;7.0
2018-03-03 00:00:00;;8.0
2018-03-03 01:00:00;;9.0
2018-03-03 02:00:00;;10.0
2018-03-03 03:00:00;;11.0
2018-03-03 04:00:00;;12.0
2018-03-03 05:00:00;;13.0
2018-03-03 06:00:00;;14.0
2018-03-03 07:00:00;;15.0
2018-03-03 08:00:00;;16.0
2018-03-03 09:00:00;;17.0
2018-03-03 10:00:00;;18.0
2018-03-03 11:00:00;;19.0
2018-03-03 12:00:00;;20.0
2018-03-03 13:00:00;;21.0
2018-03-03 14:00:00;;22.0
2018-03-03 15:00:00;;23.0
2018-03-03 16:00:00;;24.0
2018-03-03 17:00:00;;25.0
2018-03-03 18:00:00;;0.0
2018-03-03 19:00:00;;0.0
2018-03-03 20:00:00;;1.0
2018-03-03 21:00:00;;2.0
2018-03-03 22:00:00;;3.0
2018-03-03 23:00:00;;4.0
2018-03-04 00:00:00;;5.0
2018-03-04 01:00:00;;6.0
2018-03-04 02:00:00;;7.0
2018-03-04 03:00:00;;8.0
2018-03-04 04:00:00;;9.0
2018-03-04 05:00:00;;10.0
2018-03-04 06:00:00;;11.0
2018-03-04 07:00:00;;12.0
2018-03-04 08:00:00;;0.0
2018-03-04 09:00:00;;0.0
2018-03-04 10:00:00;;0.0
2018-03-04 11:00:00;;0.0
2018-03-04 12:00:00;;0.0
2018-03-04 13:00:00;;0.0
2018-03-04 14:00:00;;0.0
2018-03-04 15:00:00;;0.0
2018-03-04 16:00:00;;0.0
2018-03-04 17:00:00;;0.0
2018-03-04 18:00:00;;1.0
2018-03-04 19:00:00;;2.0
2018-03-04 20:00:00;;3.0
2018-03-04 21:00:00;;4.0
2018-03-04 22:00:00;;5.0
2018-03-04 23:00:00;;6.0
2018-03-05 00:00:00;;7.0
2018-03-05 01:00:00;;8.0
2018-03-05 02:00:00;;9.0
2018-03-05 03:00:00;;10.0
2018-03-05 04:00:00;;11.0
2018-03-05 05:00:00;;12.0
2018-03-05 06:00:00;;13.0
2018-03-05 07:00:00;;14.0
2018-03-05 08:00:00;;15.0
2018-03-05 09:00:00;;16.0
2018-03-05 10:00:00;;17.0
2018-03-05 11:00:00;;18.0
2018-03-05 12:00:00;;19.0
2018-03-05 13:00:00;;20.0
2018-03-05 14:00:00;;1.0
2018-03-05 15:00:00;;1.0
2018-03-05 16:00:00;;1.0
2018-03-05 17:00:00;;2.0
2018-03-05 18:00:00;;3.0
2018-03-05 19:00:00;;4.0
2018-03-05 20:00:00;;5.0
2018-03-05 21:00:00;;0.0
2018-03-05 22:00:00;;0.0
2018-03-05 23:00:00;;1.0
2018-03-06 00:00:00;;2.0
2018-03-06 08:00:00;;1.0
2018-03-06 09:00:00;;2.0
2018-03-06 10:00:00;;3.0
2018-03-06 11:00:00;;4.0
2018-03-06 12:00:00;;5.0
2018-03-06 13:00:00;;6.0
2018-03-06 14:00:00;;7.0
2018-03-06 15:00:00;;8.0
2018-03-06 16:00:00;;9.0
2018-03-06 17:00:00;;10.0
2018-03-06 18:00:00;;0.0
2018-03-06 19:00:00;;0.0
2018-03-06 20:00:00;;1.0
2018-03-06 21:00:00;;2.0
2018-03-06 22:00:00;;3.0
2018-03-06 23:00:00;;4.0
2018-03-07 00:00:00;;5.0
2018-03-07 01:00:00;;6.0
2018-03-07 02:00:00;;7.0
2018-03-07 03:00:00;;8.0
2018-03-07 04:00:00;;0.0
2018-03-07 05:00:00;;0.0
2018-03-07 06:00:00;;0.0
2018-03-07 07:00:00;;0.0
2018-03-07 08:00:00;;0.0
2018-03-07 09:00:00;;0.0
2018-03-07 10:00:00;;0.0
2018-03-07 11:00:00;;0.0
2018-03-07 12:00:00;;1.0
2018-03-07 13:00:00;;2.0
2018-03-07 14:00:00;;0.5
2018-03-07 15:00:00;;2.0
2018-03-07 16:00:00;;0.0
2018-03-07 17:00:00;;0.0
2018-03-07 18:00:00;;1.0
2018-03-07 19:00:00;;2.0
2018-03-07 20:00:00;;3.0
2018-03-07 21:00:00;;4.0
2018-03-07 22:00:00;;5.0
2018-03-07 23:00:00;;6.0
2018-03-08 00:00:00;;7.0
2018-03-08 01:00:00;;8.0
2018-03-08 02:00:00;;9.0
2018-03-08 03:00:00;;10.0
2018-03-08 04:00:00;;11.0
2018-03-08 05:00:00;;12.0
2018-03-08 06:00:00;;13.0
2018-03-08 07:00:00;;14.0
2018-03-08 08:00:00;;15.0
2018-03-08 09:00:00;;16.0
2018-03-08 10:00:00;;17.0
2018-03-08 11:00:00;;18.0
2018-03-08 12:00:00;;0.0
2018-03-08 13:00:00;;0.0
2018-03-08 14:00:00;;0.0
2018-03-08 15:00:00;;0.0
2018-03-08 16:00:00;;0.0
2018-03-08 17:00:00;;0.0
2018-03-08 18:00:00;;0.0
2018-03-08 19:00:00;;0.0
2018-03-08 20:00:00;;0.0
2018-03-08 21:00:00;;0.0
2018-03-08 22:00:00;;1.0
2018-03-08 23:00:00;;2.0
2018-03-09 00:00:00;;3.0
2018-03-09 01:00:00;;4.0
2018-03-09 02:00:00;;5.0
2018-03-09 03:00:00;;6.0
2018-03-09 04:00:00;;7.0
2018-03-09 05:00:00;;8.0
2018-03-09 06:00:00;;0.0
2018-03-09 07:00:00;;0.0
2018-03-09 08:00:00;;0.0
2018-03-09 09:00:00;;0.0
2018-03-09 10:00:00;;0.0
2018-03-09 11:00:00;;0.0
2018-03-09 12:00:00;;0.0
2018-03-09 13:00:00;;0.0
2018-03-09 14:00:00;;1.0
2018-03-09 15:00:00;;2.0
2018-03-09 16:00:00;;0.0
2018-03-09 17:00:00;;0.0
2018-03-09 18:00:00;;0.0
2018-03-09 19:00:00;;0.0
2018-03-09 20:00:00;;0.0
2018-03-09 21:00:00;;0.0
2018-03-09 22:00:00;;0.0
2018-03-09 23:00:00;;0.0
2018-03-10 00:00:00;;0.0
2018-03-10 01:00:00;;0.0
2018-03-10 02:00:00;;0.0
2018-03-10 03:00:00;;0.0
2018-03-10 04:00:00;;0.0
2018-03-10 05:00:00;;0.0
2018-03-10 06:00:00;;0.0
2018-03-10 07:00:00;;0.0
2018-03-10 08:00:00;;0.0
2018-03-10 09:00:00;;0.0
2018-03-10 10:00:00;;0.0
2018-03-10 11:00:00;;0.0
2018-03-10 12:00:00;;0.0
2018-03-10 13:00:00;;0.0
2018-03-10 14:00:00;;0.0
2018-03-10 15:00:00;;0.0
2018-03-10 16:00:00;;0.0
2018-03-10 17:00:00;;0.0
2018-03-10 18:00:00;;0.0
2018-03-10 19:00:00;;0.0
2018-03-10 20:00:00;;0.0
2018-03-10 21:00:00;;0.0
2018-03-10 22:00:00;;0.0
2018-03-10 23:00:00;;0.0
2018-03-11 00:00:00;;0.0
2018-03-11 01:00:00;;0.0
2018-03-11 02:00:00;;0.0
2018-03-11 03:00:00;;0.0
2018-03-11 04:00:00;;0.0
2018-03-11 05:00:00;;0.0
2018-03-11 06:00:00;;0.0
2018-03-11 07:00:00;;0.0
2018-03-11 08:00:00;;0.0
2018-03-11 09:00:00;;0.0
2018-03-11 10:00:00;;0.0
2018-03-11 11:00:00;;0.0
2018-03-11 12:00:00;;0.0
2018-03-11 13:00:00;;0.0
2018-03-11 14:00:00;;0.0
2018-03-11 15:00:00;;0.0
2018-03-11 16:00:00;;0.0
2018-03-11 17:00:00;;0.0
2018-03-11 18:00:00;;0.0
2018-03-11 19:00:00;;0.0
2018-03-11 20:00:00;;0.0
2018-03-11 21:00:00;;0.0
2018-03-11 22:00:00;;0.0
2018-03-11 23:00:00;;0.0
2018-03-12 00:00:00;;0.0
2018-03-12 01:00:00;;0.0
2018-03-12 02:00:00;;0.0
2018-03-12 03:00:00;;0.0
2018-03-12 04:00:00;;0.0
2018-03-12 05:00:00;;0.0
2018-03-12 06:00:00;;0.0
2018-03-12 07:00:00;;0.0
2018-03-12 08:00:00;;0.0
2018-03-12 09:00:00;;0.0
2018-03-12 10:00:00;;0.0
2018-03-12 11:00:00;;0.0
2018-03-12 12:00:00;;0.0
2018-03-12 13:00:00;;0.0
2018-03-12 14:00:00;;0.0
2018-03-12 15:00:00;;0.256198347107438
2018-03-12 16:00:00;;1.0121951219512195
2018-03-12 17:00:00;;3.0
2018-03-12 18:00:00;;0.0
2018-03-12 19:00:00;;0.0
2018-03-12 20:00:00;;1.0
2018-03-12 21:00:00;;2.0
2018-03-12 22:00:00;;3.0
2018-03-12 23:00:00;;4.0
2018-03-13 00:00:00;;0.0
2018-03-13 01:00:00;;0.0
2018-03-13 02:00:00;;0.0
2018-03-13 03:00:00;;0.0
2018-03-13 04:00:00;;0.0
2018-03-13 05:00:00;;0.0
2018-03-13 06:00:00;;1.0
2018-03-13 07:00:00;;2.0
2018-03-13 08:00:00;;3.0
2018-03-13 09:00:00;;2.5
2018-03-13 10:00:00;;3.5
2018-03-13 11:00:00;;1.875
2018-03-13 12:00:00;;4.5
2018-03-13 13:00:00;;0.40384615384615385
2018-03-13 14:00:00;;0.0
2018-03-13 15:00:00;;0.987012987012987
2018-03-13 16:00:00;;1.0113636363636365
2018-03-13 17:00:00;;2.0
2018-03-13 18:00:00;;4.0
2018-03-13 19:00:00;;5.0
2018-03-13 20:00:00;;6.0
2018-03-13 21:00:00;;7.0
2018-03-13 22:00:00;;8.0
2018-03-13 23:00:00;;0.0
2018-03-14 00:00:00;;0.0
2018-03-14 01:00:00;;1.0
2018-03-14 02:00:00;;2.0
2018-03-14 03:00:00;;3.0
2018-03-14 04:00:00;;4.0
2018-03-14 05:00:00;;5.0
2018-03-14 06:00:00;;6.0
2018-03-14 07:00:00;;7.0
2018-03-14 08:00:00;;8.0
2018-03-14 09:00:00;;1.6666666666666667
2018-03-14 10:00:00;;6.0
2018-03-14 11:00:00;;7.0
2018-03-14 12:00:00;;12.0
2018-03-14 13:00:00;;4.0
2018-03-14 14:00:00;;8.0
2018-03-14 15:00:00;;9.0
2018-03-14 16:00:00;;10.0
2018-03-14 17:00:00;;17.0
2018-03-14 18:00:00;;18.0
2018-03-14 19:00:00;;19.0
2018-03-14 20:00:00;;20.0
2018-03-14 21:00:00;;21.0
2018-03-14 22:00:00;;22.0
2018-03-14 23:00:00;;23.0
2018-03-15 00:00:00;;24.0
2018-03-15 01:00:00;;25.0
2018-03-15 02:00:00;;0.0
2018-03-15 03:00:00;;0.0
2018-03-15 04:00:00;;0.0
2018-03-15 05:00:00;;0.0
2018-03-15 06:00:00;;0.0
2018-03-15 07:00:00;;0.0
2018-03-15 08:00:00;;1.0
2018-03-15 09:00:00;;2.0
2018-03-15 10:00:00;;3.0
2018-03-15 11:00:00;;4.0
2018-03-15 12:00:00;;5.0
2018-03-15 13:00:00;;6.0
2018-03-15 14:00:00;;1.162162162162162
2018-03-15 15:00:00;;1.2592592592592593
2018-03-15 16:00:00;;0.05555555555555555
2018-03-15 17:00:00;;0.0
2018-03-15 18:00:00;;0.0
2018-03-15 19:00:00;;1.0
2018-03-15 20:00:00;;2.0
2018-03-15 21:00:00;;0.0
2018-03-15 22:00:00;;0.0
2018-03-15 23:00:00;;0.0
2018-03-16 00:00:00;;0.0
2018-03-16 01:00:00;;1.0
2018-03-16 02:00:00;;2.0
2018-03-16 03:00:00;;3.0
2018-03-16 04:00:00;;4.0
2018-03-16 05:00:00;;5.0
2018-03-16 06:00:00;;6.0
2018-03-16 07:00:00;;7.0
2018-03-16 08:00:00;;8.0
2018-03-16 09:00:00;;1.4210526315789473
2018-03-16 10:00:00;;1.236842105263158
2018-03-16 11:00:00;;1.1639344262295082
2018-03-16 12:00:00;;1.8571428571428572
2018-03-16 13:00:00;;1.1904761904761905
2018-03-16 14:00:00;;1.4814814814814814
2018-03-16 15:00:00;;1.3043478260869565
2018-03-16 16:00:00;;1.0
2018-03-16 17:00:00;;1.0357142857142858
2018-03-16 18:00:00;;3.0
2018-03-16 19:00:00;;4.0
2018-03-16 20:00:00;;5.0
2018-03-16 21:00:00;;6.0
2018-03-16 22:00:00;;7.0
2018-03-16 23:00:00;;8.0
2018-03-17 00:00:00;;9.0
2018-03-17 01:00:00;;10.0
2018-03-17 02:00:00;;11.0
2018-03-17 03:00:00;;12.0
2018-03-17 04:00:00;;13.0
2018-03-17 05:00:00;;14.0
2018-03-17 06:00:00;;15.0
2018-03-17 07:00:00;;16.0
2018-03-17 08:00:00;;17.0
2018-03-17 09:00:00;;0.0
2018-03-17 10:00:00;;0.0
2018-03-17 11:00:00;;0.0
2018-03-17 12:00:00;;0.0
2018-03-17 13:00:00;;0.0
2018-03-17 14:00:00;;0.0
2018-03-17 15:00:00;;0.0
2018-03-17 16:00:00;;0.0
2018-03-17 17:00:00;;0.0
2018-03-17 18:00:00;;0.0
2018-03-17 19:00:00;;0.0
2018-03-17 20:00:00;;0.0
2018-03-17 21:00:00;;0.0
2018-03-17 22:00:00;;0.0
2018-03-17 23:00:00;;1.0
2018-03-18 00:00:00;;2.0
2018-03-18 01:00:00;;3.0
2018-03-18 02:00:00;;4.0
2018-03-18 03:00:00;;5.0
2018-03-18 04:00:00;;6.0
2018-03-18 05:00:00;;7.0
2018-03-18 06:00:00;;8.0
2018-03-18 07:00:00;;0.0
2018-03-18 08:00:00;;0.0
2018-03-18 09:00:00;;1.0
2018-03-18 10:00:00;;2.0
2018-03-18 11:00:00;;0.0
2018-03-18 12:00:00;;0.0
2018-03-18 13:00:00;;1.0
2018-03-18 14:00:00;;2.0
2018-03-18 15:00:00;;3.0
2018-03-18 16:00:00;;4.0
2018-03-18 17:00:00;;0.0
2018-03-18 18:00:00;;0.0
2018-03-18 19:00:00;;0.0
2018-03-18 20:00:00;;0.0
2018-03-18 21:00:00;;1.0
2018-03-18 22:00:00;;2.0
2018-03-18 23:00:00;;0.0
2018-03-19 00:00:00;;0.0
2018-03-19 01:00:00;;0.0
2018-03-19 02:00:00;;0.0
2018-03-19 03:00:00;;0.0
2018-03-19 04:00:00;;0.0
2018-03-19 05:00:00;;0.0
2018-03-19 06:00:00;;0.0
2018-03-19 07:00:00;;1.0
2018-03-19 08:00:00;;2.0
2018-03-19 09:00:00;;3.0
2018-03-19 10:00:00;;4.0
2018-03-19 11:00:00;;5.0
2018-03-19 12:00:00;;6.0
2018-03-19 13:00:00;;7.0
2018-03-19 14:00:00;;1.0
2018-03-19 15:00:00;;2.0
2018-03-19 16:00:00;;3.0
2018-03-19 17:00:00;;4.0
2018-03-19 18:00:00;;5.0
2018-03-19 19:00:00;;6.0
2018-03-19 20:00:00;;7.0
2018-03-19 21:00:00;;8.0
2018-03-19 22:00:00;;9.0
2018-03-19 23:00:00;;10.0
2018-03-20 00:00:00;;11.0
2018-03-20 01:00:00;;12.0
2018-03-20 02:00:00;;13.0
2018-03-20 03:00:00;;14.0
2018-03-20 04:00:00;;15.0
2018-03-20 05:00:00;;16.0
2018-03-20 06:00:00;;17.0
2018-03-20 07:00:00;;18.0
2018-03-20 08:00:00;;10.0
2018-03-20 09:00:00;;7.666666666666667
2018-03-20 10:00:00;;1.0
2018-03-20 11:00:00;;2.0
2018-03-20 12:00:00;;0.0
2018-03-20 13:00:00;;1.0
2018-03-20 14:00:00;;2.0
2018-03-20 15:00:00;;3.0
2018-03-20 16:00:00;;4.0
2018-03-20 17:00:00;;5.0
2018-03-20 18:00:00;;6.0
2018-03-20 19:00:00;;7.0
2018-03-20 20:00:00;;8.0
2018-03-20 21:00:00;;9.0
2018-03-20 22:00:00;;10.0
2018-03-20 23:00:00;;11.0
2018-03-21 00:00:00;;12.0
2018-03-21 01:00:00;;13.0
2018-03-21 02:00:00;;14.0
2018-03-21 03:00:00;;15.0
2018-03-21 04:00:00;;16.0
2018-03-21 05:00:00;;17.0
2018-03-21 06:00:00;;18.0
2018-03-21 07:00:00;;19.0
2018-03-21 08:00:00;;0.0
2018-03-21 09:00:00;;1.0
2018-03-21 10:00:00;;0.0
2018-03-21 11:00:00;;1.0
2018-03-21 12:00:00;;2.0
2018-03-21 13:00:00;;3.0
2018-03-21 14:00:00;;4.0
2018-03-21 15:00:00;;5.0
2018-03-21 16:00:00;;6.0
2018-03-21 17:00:00;;7.0
2018-03-21 18:00:00;;8.0
2018-03-21 19:00:00;;9.0
2018-03-21 20:00:00;;10.0
2018-03-21 21:00:00;;11.0
2018-03-21 22:00:00;;12.0
2018-03-21 23:00:00;;13.0
2018-03-22 00:00:00;;14.0
2018-03-22 01:00:00;;15.0
2018-03-22 02:00:00;;16.0
2018-03-22 03:00:00;;17.0
2018-03-22 04:00:00;;18.0
2018-03-22 05:00:00;;19.0
2018-03-22 06:00:00;;20.0
2018-03-22 07:00:00;;0.0
2018-03-22 08:00:00;;1.0
2018-03-22 09:00:00;;2.0
2018-03-22 10:00:00;;2.0
2018-03-22 11:00:00;;2.0
2018-03-22 12:00:00;;3.0
2018-03-22 13:00:00;;4.0
2018-03-22 14:00:00;;5.0
2018-03-22 15:00:00;;6.0
2018-03-22 16:00:00;;4.0
2018-03-22 17:00:00;;2.0
2018-03-22 18:00:00;;3.0
2018-03-22 19:00:00;;4.0
2018-03-22 20:00:00;;5.0
2018-03-22 21:00:00;;6.0
2018-03-22 22:00:00;;7.0
2018-03-22 23:00:00;;8.0
2018-03-23 00:00:00;;9.0
2018-03-23 01:00:00;;10.0
2018-03-23 02:00:00;;11.0
2018-03-23 03:00:00;;12.0
2018-03-23 04:00:00;;13.0
2018-03-23 05:00:00;;14.0
2018-03-23 06:00:00;;15.0
2018-03-23 07:00:00;;16.0
2018-03-23 08:00:00;;17.0
2018-03-23 09:00:00;;18.0
2018-03-23 10:00:00;;19.0
2018-03-23 11:00:00;;20.0
2018-03-23 12:00:00;;21.0
2018-03-23 13:00:00;;22.0
2018-03-23 14:00:00;;0.0
2018-03-23 15:00:00;;0.0
2018-03-23 16:00:00;;1.0
2018-03-23 17:00:00;;0.0
2018-03-23 18:00:00;;1.0
2018-03-23 19:00:00;;2.0
2018-03-23 20:00:00;;3.0
2018-03-23 21:00:00;;4.0
2018-03-23 22:00:00;;5.0
2018-03-23 23:00:00;;6.0
2018-03-24 00:00:00;;7.0
2018-03-24 01:00:00;;8.0
2018-03-24 02:00:00;;9.0
2018-03-24 03:00:00;;10.0
2018-03-24 04:00:00;;11.0
2018-03-24 05:00:00;;12.0
2018-03-24 06:00:00;;0.0
2018-03-24 07:00:00;;0.0
2018-03-24 08:00:00;;0.0
2018-03-24 09:00:00;;1.0
2018-03-24 10:00:00;;2.0
2018-03-24 11:00:00;;3.0
2018-03-24 12:00:00;;4.0
2018-03-24 13:00:00;;5.0
2018-03-24 14:00:00;;6.0
2018-03-24 15:00:00;;7.0
2018-03-24 16:00:00;;8.0
2018-03-24 17:00:00;;9.0
2018-03-24 18:00:00;;10.0
2018-03-24 19:00:00;;11.0
2018-03-24 20:00:00;;12.0
2018-03-24 21:00:00;;13.0
2018-03-24 22:00:00;;14.0
2018-03-24 23:00:00;;15.0
2018-03-25 00:00:00;;16.0
2018-03-25 01:00:00;;17.0
2018-03-25 02:00:00;;1.0
2018-03-25 03:00:00;;2.0
2018-03-25 04:00:00;;3.0
2018-03-25 05:00:00;;4.0
2018-03-25 06:00:00;;5.0
2018-03-25 07:00:00;;6.0
2018-03-25 08:00:00;;7.0
2018-03-25 09:00:00;;8.0
2018-03-25 10:00:00;;9.0
2018-03-25 11:00:00;;10.0
2018-03-25 12:00:00;;11.0
2018-03-25 13:00:00;;12.0
2018-03-25 14:00:00;;13.0
2018-03-25 15:00:00;;14.0
2018-03-25 16:00:00;;15.0
2018-03-25 17:00:00;;16.0
2018-03-25 18:00:00;;17.0
2018-03-25 19:00:00;;0.0
2018-03-25 20:00:00;;0.0
2018-03-25 21:00:00;;0.0
2018-03-25 22:00:00;;0.0
2018-03-25 23:00:00;;0.0
2018-03-26 00:00:00;;0.0
2018-03-26 01:00:00;;1.0
2018-03-26 02:00:00;;2.0
2018-03-26 03:00:00;;3.0
2018-03-26 04:00:00;;4.0
2018-03-26 05:00:00;;5.0
2018-03-26 06:00:00;;6.0
2018-03-26 07:00:00;;7.0
2018-03-26 08:00:00;;1.3043478260869565
2018-03-26 09:00:00;;2.0
2018-03-26 10:00:00;;1.125
2018-03-26 11:00:00;;4.0
2018-03-26 12:00:00;;3.0
2018-03-26 13:00:00;;1.064102564102564
2018-03-26 14:00:00;;1.0909090909090908
2018-03-26 15:00:00;;1.1555555555555554
2018-03-26 16:00:00;;1.2222222222222223
2018-03-26 17:00:00;;10.0
2018-03-26 18:00:00;;11.0
2018-03-26 19:00:00;;12.0
2018-03-26 20:00:00;;13.0
2018-03-26 21:00:00;;14.0
2018-03-26 22:00:00;;15.0
2018-03-26 23:00:00;;16.0
2018-03-27 00:00:00;;17.0
2018-03-27 01:00:00;;18.0
2018-03-27 02:00:00;;19.0
2018-03-27 03:00:00;;20.0
2018-03-27 04:00:00;;0.0
2018-03-27 05:00:00;;0.0
2018-03-27 06:00:00;;0.0
2018-03-27 07:00:00;;0.0
2018-03-27 08:00:00;;0.0
2018-03-27 09:00:00;;0.0
2018-03-27 10:00:00;;0.0
2018-03-27 11:00:00;;0.0
2018-03-27 12:00:00;;1.0
2018-03-27 13:00:00;;2.0
2018-03-27 14:00:00;;1.0
2018-03-27 15:00:00;;0.0
2018-03-27 16:00:00;;0.0
2018-03-27 17:00:00;;0.0
2018-03-27 18:00:00;;0.0
2018-03-27 19:00:00;;0.0
2018-03-27 20:00:00;;1.0
2018-03-27 21:00:00;;2.0
2018-03-27 22:00:00;;3.0
2018-03-27 23:00:00;;4.0
2018-03-28 00:00:00;;5.0
2018-03-28 01:00:00;;6.0
2018-03-28 02:00:00;;7.0
2018-03-28 03:00:00;;8.0
2018-03-28 04:00:00;;9.0
2018-03-28 05:00:00;;0.0
2018-03-28 06:00:00;;0.0
2018-03-28 07:00:00;;0.0
2018-03-28 08:00:00;;0.0
2018-03-28 09:00:00;;0.0
2018-03-28 10:00:00;;0.0
2018-03-28 11:00:00;;0.0
2018-03-28 12:00:00;;0.0
2018-03-28 13:00:00;;1.0
2018-03-28 14:00:00;;0.0
2018-03-28 15:00:00;;1.0
2018-03-28 16:00:00;;2.0
2018-03-28 17:00:00;;3.0
2018-03-28 18:00:00;;4.0
2018-03-28 19:00:00;;5.0
2018-03-28 20:00:00;;6.0
2018-03-28 21:00:00;;7.0
2018-03-28 22:00:00;;8.0
2018-03-28 23:00:00;;1.0
2018-03-29 00:00:00;;2.0
2018-03-29 01:00:00;;1.0
2018-03-29 02:00:00;;2.0
2018-03-29 03:00:00;;3.0
2018-03-29 04:00:00;;4.0
2018-03-29 05:00:00;;5.0
2018-03-29 06:00:00;;6.0
2018-03-29 07:00:00;;7.0
2018-03-29 08:00:00;;8.0
2018-03-29 09:00:00;;9.0
2018-03-29 10:00:00;;10.0
2018-03-29 11:00:00;;11.0
2018-03-29 12:00:00;;12.0
2018-03-29 13:00:00;;13.0
2018-03-29 14:00:00;;14.0
2018-03-29 15:00:00;;15.0
2018-03-29 16:00:00;;16.0
2018-03-29 17:00:00;;17.0
2018-03-29 18:00:00;;0.0
2018-03-29 19:00:00;;0.0
2018-03-29 20:00:00;;0.0
2018-03-29 21:00:00;;1.0
2018-03-29 22:00:00;;2.0
2018-03-29 23:00:00;;3.0
2018-03-30 00:00:00;;4.0
2018-03-30 01:00:00;;5.0
2018-03-30 02:00:00;;6.0
2018-03-30 03:00:00;;7.0
2018-03-30 04:00:00;;8.0
2018-03-30 05:00:00;;0.0
2018-03-30 06:00:00;;0.0
2018-03-30 07:00:00;;0.0
2018-03-30 08:00:00;;1.0
2018-03-30 09:00:00;;0.043478260869565216
2018-03-30 10:00:00;;0.0
2018-03-30 11:00:00;;0.0
2018-03-30 12:00:00;;0.9875
2018-03-30 13:00:00;;1.0
2018-03-30 14:00:00;;1.0149253731343284
2018-03-30 15:00:00;;0.06896551724137931
2018-03-30 16:00:00;;0.0
2018-03-30 17:00:00;;0.0
2018-03-30 18:00:00;;1.0
2018-03-30 19:00:00;;2.0
2018-03-30 20:00:00;;3.0
2018-03-30 21:00:00;;4.0
2018-03-30 22:00:00;;5.0
2018-03-30 23:00:00;;6.0
2018-03-31 00:00:00;;7.0
2018-03-31 01:00:00;;8.0
2018-03-31 02:00:00;;9.0
2018-03-31 03:00:00;;10.0
2018-03-31 04:00:00;;11.0
2018-03-31 05:00:00;;0.0
2018-03-31 06:00:00;;0.0
2018-03-31 07:00:00;;1.0
2018-03-31 08:00:00;;2.0
2018-03-31 09:00:00;;3.0
2018-03-31 10:00:00;;4.0
2018-03-31 11:00:00;;5.0
2018-03-31 12:00:00;;6.0
2018-03-31 13:00:00;;7.0
2018-03-31 14:00:00;;8.0
2018-03-31 15:00:00;;9.0
2018-03-31 16:00:00;;10.0
2018-03-31 17:00:00;;11.0
2018-03-31 18:00:00;;12.0
2018-03-31 19:00:00;;0.0
2018-03-31 20:00:00;;0.0
2018-03-31 21:00:00;;1.0
2018-03-31 22:00:00;;2.0
2018-03-31 23:00:00;;3.0
2018-04-01 00:00:00;;4.0
2018-04-01 01:00:00;;5.0
2018-04-01 02:00:00;;6.0
2018-04-01 03:00:00;;7.0
2018-04-01 04:00:00;;8.0
2018-04-01 05:00:00;;0.0
2018-04-01 06:00:00;;0.0
2018-04-01 07:00:00;;1.0
2018-04-01 08:00:00;;0.0
2018-04-01 09:00:00;;0.0
2018-04-01 10:00:00;;1.0
2018-04-01 11:00:00;;0.0
2018-04-01 12:00:00;;1.0
2018-04-01 13:00:00;;2.0
2018-04-01 14:00:00;;3.0
2018-04-01 15:00:00;;4.0
2018-04-01 16:00:00;;5.0
2018-04-01 17:00:00;;6.0
2018-04-01 18:00:00;;7.0
2018-04-01 19:00:00;;8.0
2018-04-01 20:00:00;;9.0
2018-04-01 21:00:00;;10.0
2018-04-01 22:00:00;;11.0
2018-04-01 23:00:00;;12.0
2018-04-02 00:00:00;;13.0
2018-04-02 01:00:00;;0.0
2018-04-02 02:00:00;;0.0
2018-04-02 03:00:00;;1.0
2018-04-02 04:00:00;;2.0
2018-04-02 05:00:00;;3.0
2018-04-02 06:00:00;;4.0
2018-04-02 07:00:00;;0.0
2018-04-02 08:00:00;;1.0
2018-04-02 09:00:00;;0.0